EHI
0 0 0 0 0 0 0 0 0 0 0 0 0 0 0 0 0 0 1 5 17 34 42 40 40 39 40 44 50 55 56 57 57 54 50 47 40 32 23 14 8 5 3 2 2 1 0 0 0
0 0 0 0 0 0 0 0 0 0 0 0 0 0 0 1 1 1 3 9 19 34 42 42 41 41 42 45 50 54 56 56 55 52 47 42 37 30 23 14 7 4 3 1 1 0 0 0 0
0 0 0 0 0 0 0 0 0 0 0 0 0 0 1 2 2 3 7 14 23 34 41 44 43 43 43 44 48 50 51 51 49 46 41 36 31 27 22 13 7 4 3 1 1 1 0 0 0
0 0 0 0 0 0 0 0 0 0 0 0 0 0 1 2 3 5 10 17 25 31 38 42 43 43 42 42 43 43 43 42 41 39 36 32 27 24 21 14 7 4 3 2 2 1 1 0 0
0 0 0 0 0 0 0 0 0 0 0 0 0 0 0 1 3 6 10 16 22 27 33 39 40 40 40 41 41 40 39 37 36 35 34 30 26 23 21 16 8 4 3 3 2 2 2 1 0
0 0 0 0 0 0 0 0 0 0 0 0 0 0 0 2 4 7 8 10 16 24 31 34 34 34 37 40 41 41 40 38 36 35 33 29 25 23 21 15 9 4 3 3 3 3 3 1 1
0 0 0 0 0 0 0 0 0 0 0 0 1 1 1 3 7 9 8 8 12 21 27 28 26 26 30 35 39 41 41 39 39 37 34 30 26 24 20 13 8 5 5 5 5 5 4 2 2
0 0 0 0 0 0 0 0 0 0 0 0 1 1 1 4 10 14 13 11 14 18 21 21 21 22 22 25 31 36 38 39 39 37 33 27 22 18 16 12 9 7 6 6 6 6 5 3 3
0 0 0 0 0 0 0 0 1 1 0 0 0 1 3 8 15 19 17 15 18 20 18 18 21 21 17 17 21 25 29 32 32 30 27 21 14 11 11 12 12 9 6 5 5 4 3 3 3
0 0 0 0 0 0 0 0 1 2 1 0 1 3 7 13 19 21 19 19 23 23 21 20 22 21 16 14 15 15 19 23 23 21 21 18 14 11 11 13 14 10 5 4 4 3 2 2 3
0 0 0 0 0 0 0 0 1 2 2 2 4 7 10 16 20 20 20 21 23 23 22 21 21 21 18 16 15 13 15 19 19 19 21 21 20 18 16 16 14 10 7 5 4 3 2 2 2
0 0 0 1 1 1 0 0 1 2 3 3 6 9 14 18 20 20 20 21 20 18 19 19 20 22 22 20 19 18 19 21 20 22 23 23 24 23 20 18 14 11 8 7 7 4 2 1 1
0 0 1 2 3 2 1 0 2 4 4 4 6 10 15 20 20 20 21 22 19 17 18 19 22 25 26 25 23 22 22 22 21 23 23 22 23 23 21 19 16 11 9 8 6 4 2 0 0
0 0 1 3 4 2 1 0 2 4 5 4 5 7 12 17 19 20 23 24 21 19 20 22 25 27 28 26 23 21 20 20 21 23 23 20 20 20 20 19 16 11 9 8 6 4 2 0 0
0 0 1 2 3 2 1 0 2 3 3 3 3 4 6 12 16 18 21 22 19 18 19 21 24 27 28 27 24 21 19 19 21 23 23 20 18 19 18 16 14 11 11 11 9 5 2 0 0
0 0 0 1 2 1 0 0 1 2 1 2 3 3 5 10 13 14 16 17 18 19 19 18 20 25 27 28 27 23 20 19 19 21 20 19 19 19 18 17 15 13 13 13 12 8 4 1 0
0 0 0 0 0 0 0 0 1 1 1 2 5 6 8 11 12 12 13 16 19 20 18 17 18 22 26 29 28 24 21 19 19 19 19 20 19 18 17 18 17 15 15 15 12 9 6 3 1
0 0 0 0 0 0 0 0 0 0 1 2 5 9 11 12 12 12 12 15 18 18 18 18 19 24 29 31 30 27 23 21 19 19 19 19 18 16 15 16 16 16 16 15 13 11 8 5 3
0 0 0 0 0 0 0 0 0 0 0 2 6 11 14 16 15 14 12 13 15 16 18 21 23 28 32 33 33 31 28 23 19 17 16 15 15 14 14 15 15 16 16 15 13 12 9 6 4
0 0 0 0 0 0 0 0 0 0 1 4 7 10 13 16 19 17 14 12 13 14 16 21 27 30 32 32 31 31 29 23 18 15 13 12 13 14 15 15 14 15 16 16 15 13 9 7 6
0 0 0 0 0 0 0 0 0 1 2 3 4 5 8 13 17 17 15 13 12 12 14 19 25 29 30 30 29 28 26 22 18 15 14 13 15 16 16 15 13 14 16 16 16 15 12 10 9
0 0 0 0 0 0 0 0 0 1 2 2 1 2 4 8 11 13 13 11 10 11 14 17 21 24 26 27 28 27 24 21 18 18 16 16 16 15 13 13 13 14 15 15 16 16 15 12 11
0 0 0 0 0 0 0 0 0 0 1 1 0 1 3 5 8 10 10 8 8 9 11 15 19 20 22 22 25 27 25 22 20 19 19 17 15 13 11 10 11 12 14 15 17 17 15 12 11
0 0 0 0 0 0 0 0 1 0 0 0 0 1 3 3 5 8 9 9 9 9 11 15 19 21 20 18 20 24 25 25 23 20 18 17 15 12 10 8 7 7 10 14 16 16 13 11 10
0 0 0 0 0 0 0 0 0 0 0 0 1 2 3 4 6 9 10 10 10 11 12 15 19 21 20 17 17 20 23 24 23 20 17 15 13 11 8 6 5 5 7 10 12 11 10 8 8
0 0 0 0 0 0 0 0 0 0 0 0 1 2 4 6 7 8 9 9 9 10 11 14 18 20 19 18 17 19 20 21 21 19 15 13 12 9 6 4 4 4 4 5 6 6 6 5 5
0 0 0 0 0 0 0 0 0 0 0 0 0 1 3 5 7 7 6 5 6 7 9 11 14 15 17 17 18 18 18 17 18 16 13 10 9 7 5 3 2 1 1 1 2 3 4 3 3
0 0 0 0 0 0 0 0 0 0 0 0 0 1 2 4 5 5 4 4 4 5 7 9 10 11 12 14 16 16 15 14 14 12 9 6 4 3 2 1 0 1 1 1 1 3 3 3 3
0 0 0 0 0 0 0 0 0 0 0 0 0 0 1 2 4 4 4 5 5 6 7 8 8 9 9 10 12 13 12 11 9 7 5 4 2 1 0 0 0 1 2 2 2 3 3 2 2
0 0 0 0 0 0 0 0 0 0 0 0 0 0 0 1 3 4 5 5 6 6 7 8 8 8 8 9 10 11 10 9 7 5 4 3 2 1 0 0 0 1 1 1 2 3 2 1 1
Wind_Speed
8 8 6 5 7 6 3 2 1 2 2 3 3 3 4 4 4 4 6 8 11 14 17 18 15 14 14 13 13 13 14 14 14 13 13 12 12 11 10 9 8 7 6 5 5 4 4 3 2
6 6 7 6 7 5 3 2 2 1 2 2 1 2 2 1 4 4 6 9 12 15 15 16 16 15 14 13 13 13 13 13 13 13 12 12 11 11 10 9 8 7 6 5 4 4 3 2 1
6 7 7 6 6 4 2 3 1 1 1 1 0 1 2 3 3 3 6 12 13 14 14 15 16 15 14 13 13 13 13 13 13 12 12 11 11 10 9 8 7 6 5 4 4 3 3 2 2
5 7 6 7 6 3 2 1 1 1 1 1 1 0 2 4 3 4 9 12 14 14 14 16 15 14 14 13 13 12 12 12 12 11 11 10 10 9 8 7 7 6 5 4 4 3 3 3 3
6 6 7 7 7 2 2 2 3 3 1 1 2 1 1 3 4 7 11 12 13 13 12 16 14 13 13 13 12 12 12 11 11 10 10 9 9 8 7 7 6 5 5 4 4 3 3 3 3
6 6 7 6 5 2 1 1 3 4 2 2 3 2 2 5 6 8 10 11 12 13 13 14 15 14 13 12 12 11 11 10 10 10 9 8 7 7 6 6 5 5 4 4 3 3 4 4 4
6 6 7 6 3 2 1 2 3 4 2 1 2 2 3 6 6 8 9 10 11 11 11 12 13 13 13 12 11 10 10 10 10 9 8 8 7 6 5 5 4 4 4 4 4 4 4 5 5
6 6 6 5 4 1 1 2 3 5 2 1 1 1 2 6 8 8 9 9 10 9 9 9 10 10 10 11 11 10 9 9 9 9 8 7 7 7 6 6 5 4 4 5 5 5 5 5 5
7 7 4 3 3 1 1 2 1 2 1 1 0 2 4 9 10 9 9 8 9 9 8 8 9 8 8 9 10 10 9 9 8 8 8 7 6 6 6 4 3 4 4 5 5 5 6 7 7
7 6 3 3 3 3 3 3 2 2 2 2 1 3 7 8 10 10 10 10 10 9 8 8 8 8 7 6 7 6 6 7 6 5 6 5 4 3 3 5 4 4 4 5 5 6 8 10 6
5 5 3 3 3 4 4 3 2 4 3 2 1 2 6 8 8 9 9 9 9 9 8 7 7 7 7 5 5 3 3 4 5 5 5 3 3 3 3 3 4 5 6 5 5 7 6 5 4
5 5 5 5 4 5 4 3 3 3 3 2 1 4 6 8 8 8 8 9 8 8 8 7 7 7 6 5 4 4 3 3 3 4 5 4 3 3 2 2 2 3 2 3 3 3 3 5 5
6 4 4 5 5 5 4 4 4 3 2 0 2 4 6 6 7 7 7 7 8 7 8 7 7 6 5 4 3 3 3 3 3 3 4 4 3 3 2 2 2 3 2 3 3 3 3 5 5
3 4 5 5 4 3 3 3 2 1 0 2 3 4 5 6 7 7 7 7 7 7 7 7 7 6 6 5 4 3 3 3 3 3 3 4 3 2 2 3 2 3 3 2 3 3 4 4 4
4 6 6 4 4 3 4 3 1 1 1 2 2 2 4 5 5 6 6 6 6 6 6 6 7 6 6 5 5 3 3 3 2 2 3 3 3 2 3 2 3 2 2 3 4 4 4 4 5
8 8 5 2 2 2 6 1 4 1 1 1 1 2 3 4 4 4 5 5 5 5 5 5 5 6 6 4 4 3 2 3 2 2 2 3 3 3 3 3 2 2 3 3 3 4 4 4 5
8 6 3 1 1 2 4 2 2 0 1 1 1 2 2 3 3 4 5 5 4 4 4 5 5 6 6 5 4 3 3 2 2 2 2 3 3 3 4 3 2 4 4 4 4 3 4 5 5
3 4 3 2 0 2 3 1 0 1 1 1 1 2 2 2 2 3 4 5 5 4 4 5 6 6 5 5 4 3 3 3 2 2 2 3 3 4 4 3 3 4 4 4 3 4 4 5 5
5 6 4 2 1 2 1 1 0 0 1 1 1 1 1 2 2 3 4 4 5 5 4 5 5 5 5 4 4 4 3 3 3 3 3 4 4 4 5 4 3 4 4 4 5 5 5 5 4
5 6 4 1 1 2 2 1 1 2 1 1 1 1 1 2 3 3 3 3 4 4 4 4 5 5 5 4 3 2 2 2 2 2 3 4 4 5 5 4 4 4 4 5 5 5 5 5 4
5 5 4 3 2 5 5 3 3 4 3 3 3 1 1 2 2 3 3 2 2 2 3 3 4 4 4 4 3 2 2 2 2 3 3 3 4 5 5 5 5 4 5 4 5 5 6 6 5
4 3 4 4 6 4 5 3 4 4 3 3 4 2 1 0 2 2 3 3 2 3 3 3 3 4 4 5 4 4 3 3 3 2 2 3 4 5 4 5 5 5 5 5 6 5 6 7 6
4 4 5 6 6 4 4 4 3 4 4 5 4 3 2 1 1 2 2 2 2 2 3 3 3 3 3 4 4 5 4 3 2 2 2 3 3 4 5 5 4 5 5 5 5 5 6 6 6
3 4 6 7 7 4 1 4 3 5 6 6 5 4 3 1 0 1 2 2 1 1 1 2 2 2 3 3 4 4 3 3 2 3 3 3 2 3 4 4 4 5 4 4 4 5 6 5 6
4 5 4 5 4 1 2 1 4 6 6 6 5 4 3 2 1 1 2 2 1 1 1 1 2 2 3 3 3 3 3 3 3 3 3 3 2 2 2 3 4 4 4 4 4 4 5 5 6
3 6 5 4 3 1 2 1 4 5 5 6 5 5 4 3 2 1 2 2 1 1 0 1 1 2 2 2 2 2 3 2 2 2 2 2 2 2 2 3 3 4 4 4 4 4 4 4 5
3 3 6 5 3 2 1 3 4 4 5 6 6 5 5 4 3 2 2 1 1 1 1 0 1 1 2 2 2 2 2 1 1 2 2 1 2 2 2 3 3 3 4 4 4 4 4 4 5
5 4 3 4 3 2 0 1 4 6 7 7 7 6 5 4 4 3 2 1 1 1 1 2 2 2 2 1 1 1 1 1 1 1 1 1 2 2 3 3 3 3 4 4 4 4 3 4 5
3 2 3 3 4 4 2 3 6 6 6 6 6 6 5 5 4 3 2 2 2 2 2 1 2 1 1 1 1 1 1 1 1 1 1 1 1 2 3 3 3 4 4 4 4 4 4 5 5
4 5 4 3 2 3 3 3 6 5 5 5 5 5 5 4 4 4 3 3 2 2 2 1 1 1 1 1 0 1 0 1 1 1 1 1 2 3 3 3 3 4 4 4 4 5 4 5 5
Wind_Direction
191 194 213 227 234 228 218 135 98 110 84 31 350 315 323 335 337 40 85 138 143 142 142 151 152 151 148 145 143 142 142 142 143 144 145 145 145 144 143 142 140 141 143 143 140 138 136 133 131
188 196 218 232 245 218 174 139 145 42 35 357 300 284 303 14 32 73 118 138 145 142 146 152 151 152 149 146 145 144 144 145 145 146 147 147 146 145 146 146 146 147 148 149 149 150 147 147 154
194 222 240 237 240 245 149 114 79 46 42 255 264 327 339 17 58 94 121 145 145 143 147 144 151 151 149 148 148 147 147 147 148 148 149 148 148 148 151 152 153 153 154 156 158 160 163 173 193
208 214 229 241 229 233 290 53 351 267 162 236 263 154 80 35 24 99 132 146 145 146 148 141 151 150 150 149 149 149 149 150 150 149 149 149 151 152 155 157 157 160 165 168 173 178 185 201 217
229 237 223 224 228 215 272 311 287 258 222 219 250 224 104 65 78 118 138 146 146 144 143 142 147 149 150 150 151 152 151 150 149 149 149 151 153 155 159 162 164 169 176 180 189 195 208 224 235
221 235 234 225 214 199 232 294 265 264 250 237 246 221 99 90 112 130 140 145 143 142 143 139 146 149 151 152 153 153 152 150 150 150 150 152 155 160 167 171 176 182 190 200 207 214 227 238 241
246 243 247 247 233 198 23 340 287 289 272 273 264 202 122 117 118 130 139 141 138 141 143 145 151 153 154 155 155 152 150 152 152 152 152 154 159 168 179 184 188 197 212 222 228 228 236 241 241
261 253 239 239 246 224 56 318 300 299 315 22 287 230 118 125 130 132 132 135 136 140 142 147 153 156 160 158 155 153 150 150 153 156 160 165 173 179 186 197 193 211 222 231 238 238 240 242 238
247 244 240 251 263 324 39 294 342 310 247 166 336 15 79 127 138 139 140 142 141 141 144 150 152 156 162 160 149 156 157 157 163 168 170 191 201 192 190 184 173 216 231 239 245 241 243 245 229
238 246 271 331 311 316 316 309 314 251 227 200 125 98 120 143 153 157 156 153 152 149 150 153 151 154 159 156 150 167 169 161 182 178 181 199 200 211 210 142 175 204 222 228 233 240 238 244 233
236 266 312 302 305 309 306 306 299 257 255 282 277 141 142 156 166 170 165 159 155 152 154 155 154 159 161 155 157 167 167 163 182 180 189 204 211 202 211 192 183 205 220 233 215 231 243 249 256
240 263 281 281 290 283 293 299 289 280 304 331 239 155 159 173 177 178 169 162 159 158 160 160 159 162 167 162 162 168 169 169 184 178 205 204 209 214 210 225 232 231 230 243 252 251 253 262 258
235 261 275 274 274 281 282 273 277 295 312 273 142 157 168 177 182 182 169 162 162 165 167 165 168 165 168 170 177 170 179 181 179 193 197 218 218 217 212 226 245 255 259 246 253 261 262 265 261
266 272 269 263 259 247 256 270 229 285 60 130 147 162 162 182 185 177 170 166 167 168 169 168 174 172 173 175 182 181 185 181 199 197 199 215 223 222 231 223 239 255 261 276 274 272 265 267 272
242 249 244 231 233 221 247 233 200 102 135 134 148 154 163 175 175 172 169 167 166 169 172 176 177 174 181 186 190 186 191 191 197 193 203 217 228 215 240 241 241 259 263 251 255 261 260 261 261
229 234 234 160 203 200 245 261 70 102 145 148 142 146 166 166 174 171 176 166 160 166 168 178 181 175 182 183 186 194 198 191 198 198 195 205 223 228 240 245 248 259 259 255 252 256 266 268 270
219 236 252 176 168 215 243 301 57 119 170 176 179 170 173 161 160 166 175 165 158 161 172 178 185 184 182 177 182 191 186 197 205 209 206 205 220 230 241 247 253 251 256 260 267 266 276 273 275
278 274 269 277 67 254 254 282 351 279 263 241 203 169 170 168 163 155 157 161 152 153 183 186 189 187 181 176 183 189 185 193 208 217 218 224 228 232 245 242 243 257 260 265 271 275 268 272 272
282 274 269 289 310 276 249 273 4 326 275 268 219 187 174 157 145 145 148 158 154 166 188 187 195 184 183 183 191 192 191 195 206 215 213 223 235 237 241 253 243 252 256 265 269 268 259 260 269
266 258 260 237 160 264 225 238 124 95 55 26 25 141 147 137 142 147 155 161 167 174 193 192 189 183 191 186 195 205 206 216 213 220 211 227 235 242 240 246 250 248 254 249 254 258 270 267 258
269 279 288 283 251 221 226 211 140 112 89 69 51 57 111 158 168 176 174 173 175 181 196 193 192 193 193 185 183 174 186 214 208 217 220 228 237 241 247 244 252 253 254 252 253 254 260 269 263
288 344 295 258 250 224 240 253 109 107 86 44 26 23 35 148 173 179 186 184 192 201 199 198 197 196 190 191 195 201 211 222 222 227 230 237 239 241 239 247 251 256 258 258 255 257 263 265 269
335 320 275 259 257 250 238 264 102 83 32 20 15 12 17 10 181 179 186 185 195 200 197 190 188 188 191 201 201 209 222 227 222 220 222 239 237 241 246 252 260 261 262 265 271 268 263 266 272
318 258 238 232 238 239 297 282 61 34 7 6 19 20 7 11 78 136 143 144 150 161 162 170 179 185 190 201 204 212 217 220 217 218 223 233 234 245 252 258 265 266 273 272 269 267 260 266 275
306 290 245 221 220 143 72 301 54 30 11 10 14 15 8 10 58 97 132 134 126 106 95 182 188 193 189 189 192 202 212 219 216 228 224 241 251 260 270 280 276 282 283 279 275 271 274 271 274
315 310 319 307 319 70 147 56 68 37 22 23 31 28 20 14 39 76 108 118 120 129 150 227 209 194 190 183 175 193 213 224 215 231 260 255 273 288 292 280 285 288 286 283 285 283 281 279 276
316 335 330 294 285 281 92 111 118 53 39 27 29 29 29 17 27 41 74 91 102 80 37 270 162 161 167 161 164 183 197 215 226 234 254 279 298 295 294 291 288 289 287 286 283 283 283 281 274
1 341 290 295 318 308 239 49 17 15 12 14 19 20 24 27 26 42 69 89 85 77 70 68 102 114 123 154 183 168 168 181 199 233 263 294 303 305 290 283 281 286 291 286 281 285 289 285 281
8 5 322 319 330 312 320 52 33 20 14 13 19 19 21 26 24 42 68 73 88 87 73 68 88 95 104 127 145 152 173 188 211 221 253 296 305 290 282 284 284 287 290 288 286 293 293 288 293
1 359 336 322 336 310 305 52 52 40 25 19 26 27 29 28 31 42 60 65 69 69 59 49 55 65 67 75 87 134 168 208 241 262 294 294 295 293 298 298 292 290 291 288 288 292 294 295 297